Location: Newark
(32.8369°N, 35.2736°E)
Time: 01:18:30
(UTC+00:00)

LightSail 2 - Visible Passes

Search period start: 20 November 2019 00:00
Search period end: 30 November 2019 00:00
Orbit: 700 x 727 km, 24.0° (Epoch: 17 November)

Date Brightness Start Highest point End Pass type
(mag) Time Alt. Az. Time Alt. Az. Time Alt. Az.
20 Nov 7.1 02:00:25 17° S 02:00:25 17° S 02:02:58 10° SSE visible
22 Nov 7.7 01:50:52 10° S 01:50:52 10° S 01:50:58 10° S visible
27 Nov 7.3 16:29:34 10° S 16:32:02 14° SSE 16:32:02 14° SSE visible
28 Nov 7.5 15:33:26 10° S 15:34:21 10° SSE 15:35:14 10° SSE visible
28 Nov 7.5 17:15:15 10° SW 17:16:40 16° SSW 17:16:40 16° SSW visible
29 Nov 6.9 16:17:47 10° SSW 16:21:24 19° SSE 16:22:18 19° SSE visible
